Location: Cointrin
(46.2167°N, 6.1167°E)
Time: 06:24:40
(UTC+00:00)

Cosmos 1633 - Pass Details

Date: 08 February 2023
Orbit: 424 x 432 km, 82.5° (Epoch: 25 March)

Event Time Altitude Azimuth Distance (km) Brightness Sun altitude
Rises 17:32:54 0° 186° (S) 2,371 6.3 -7.9°
Reaches altitude 10° 17:34:55 10° 186° (S) 1,511 5.3 -8.2°
Maximum altitude 17:38:12 85° 101° (E) 433 2.2 -8.8°
Drops below altitude 10° 17:41:32 10° 10° (N) 1,529 4.9 -9.3°
Sets 17:43:35 0° 10° (N) 2,404 5.9 -9.7°
